Location: Slidell
(30.2789°N, 89.7378°W)
Time: 23:24:28
(UTC-06:00)

Cosmos 2360 Rocket - Visible Passes

Search period start: 25 February 2017 00:00
Search period end: 07 March 2017 00:00
Orbit: 834 x 845 km, 71.0° (Epoch: 24 February)

Date Brightness Start Highest point End Pass type
(mag) Time Alt. Az. Time Alt. Az. Time Alt. Az.
25 Feb 2.1 18:52:12 10° NNW 18:57:52 72° ENE 19:03:29 10° SSE visible
25 Feb 5.2 20:40:12 10° W 20:41:06 10° W 20:42:02 10° WSW visible
26 Feb 2.2 18:36:33 10° NNW 18:42:11 67° ENE 18:47:48 10° SSE visible
26 Feb 5.2 20:23:42 10° W 20:25:29 11° W 20:27:16 10° WSW visible
27 Feb 2.2 18:20:54 10° NNW 18:26:31 62° ENE 18:32:05 10° SSE visible
27 Feb 5.2 20:07:32 10° WNW 20:09:51 13° W 20:12:11 10° WSW visible
28 Feb 5.2 19:51:28 10° WNW 19:54:13 14° W 19:56:58 10° SW visible
01 Mar 5.1 19:35:30 10° WNW 19:38:35 15° W 19:41:41 10° SW visible
02 Mar 5.1 19:19:33 10° WNW 19:22:58 16° W 19:26:22 10° SW visible
03 Mar 5.1 19:03:40 10° WNW 19:07:19 18° W 19:10:59 10° SW visible
04 Mar 5.1 18:47:48 10° WNW 18:51:41 19° W 18:55:35 10° SW visible
05 Mar 5.1 18:31:57 10° NW 18:36:03 21° W 18:40:09 10° SSW visible
06 Mar 5.1 05:49:20 10° SSE 05:53:33 22° E 05:57:46 10° NE visible
